Biblioteca

Música » Lana Del Rey »

Diet Mountain Dew

24 execuções | Ir para página da faixa

De Terça 17 de maio de 2011 a Quinta 17 de maio de 2012 Todo o tempo

Faixas (24)
Faixa Álbum Duração Data
Diet Mountain Dew 3:43 Abr 9 2012, 16h37
Diet Mountain Dew 3:43 Abr 9 2012, 16h44
Diet Mountain Dew 3:43 Abr 9 2012, 20h20
Diet Mountain Dew 3:43 Abr 10 2012, 1h06
Diet Mountain Dew 3:43 Abr 11 2012, 0h06
Diet Mountain Dew 3:43 Abr 11 2012, 0h08
Diet Mountain Dew 3:43 Abr 11 2012, 0h21
Diet Mountain Dew 3:43 Abr 11 2012, 0h51
Diet Mountain Dew 3:43 Abr 15 2012, 2h53
Diet Mountain Dew 3:43 Abr 15 2012, 20h50
Diet Mountain Dew 3:43 Abr 15 2012, 21h23
Diet Mountain Dew 3:43 Abr 15 2012, 21h41
Diet Mountain Dew 3:43 Abr 15 2012, 22h04
Diet Mountain Dew 3:43 Abr 16 2012, 23h31
Diet Mountain Dew 3:43 Abr 22 2012, 14h35
Diet Mountain Dew 3:43 Abr 22 2012, 14h39
Diet Mountain Dew 3:43 Abr 25 2012, 10h05
Diet Mountain Dew 3:43 Abr 25 2012, 11h23
Diet Mountain Dew 3:43 Abr 30 2012, 2h56
Diet Mountain Dew 3:43 Abr 30 2012, 3h41
Diet Mountain Dew 3:43 Mai 1 2012, 14h27
Diet Mountain Dew 3:43 Mai 2 2012, 17h26
Diet Mountain Dew 3:43 Mai 4 2012, 13h26
Diet Mountain Dew 3:43 Mai 5 2012, 1h44